Location: Arborea
(39.7744°N, 8.5819°E)
Time: 10:52:23
(UTC+00:00)

USA 229 - Visible Passes

Search period start: 29 May 2022 00:00
Search period end: 08 June 2022 00:00
Orbit: 938 x 1274 km, 63.4° (Epoch: 24 May)

Date Brightness Start Highest point End Pass type
(mag) Time Alt. Az. Time Alt. Az. Time Alt. Az.
29 May 4.4 00:42:45 10° NW 00:49:38 40° WSW 00:49:50 40° WSW visible
29 May 6.2 20:17:30 10° N 20:20:13 12° NNE 20:23:00 10° NE visible
29 May 5.1 22:06:58 10° NNW 22:13:36 35° NE 22:18:28 18° E visible
29 May 3.9 23:57:37 10° NW 00:04:59 61° WSW 00:05:51 58° SSW visible
30 May 6.4 19:33:58 10° N 19:34:23 10° N 19:34:48 10° NNE visible
30 May 5.5 21:22:26 10° NNW 21:28:18 25° NE 21:34:27 10° E visible
30 May 3.9 23:12:42 10° NW 23:20:13 90° E 23:21:58 59° SSE visible
31 May 5.4 01:05:30 10° WNW 01:09:21 18° W 01:09:21 18° W visible
31 May 5.9 20:37:59 10° NNW 20:42:51 19° NNE 20:47:55 10° ENE visible
31 May 4.2 22:27:57 10° NNW 22:35:18 62° NE 22:38:08 40° ESE visible
01 Jun 4.9 00:19:34 10° NW 00:25:33 30° WSW 00:25:33 30° WSW visible
01 Jun 6.0 19:53:37 10° N 19:57:14 14° NNE 20:00:57 10° NE visible
01 Jun 4.7 21:43:17 10° NNW 21:50:16 43° NE 21:54:23 25° ESE visible
01 Jun 4.3 23:34:14 10° NW 23:41:22 47° WSW 23:41:47 47° SW visible
02 Jun 5.2 20:58:43 10° NNW 21:05:05 30° NE 21:10:41 14° E visible
02 Jun 3.9 22:49:11 10° NW 22:56:40 72° WSW 22:58:06 59° S visible
03 Jun 5.8 00:43:19 10° WNW 00:45:30 13° W 00:45:30 13° W visible
03 Jun 5.6 20:14:13 10° NNW 20:19:43 22° NE 20:25:27 10° E visible
03 Jun 4.0 22:04:21 10° NNW 22:11:50 78° NE 22:14:27 46° SE visible
03 Jun 5.3 23:56:35 10° WNW 00:01:52 23° WSW 00:01:52 23° WSW visible
04 Jun 5.9 19:29:47 10° N 19:34:11 17° NNE 19:38:45 10° ENE visible
04 Jun 4.4 21:19:38 10° NNW 21:26:53 53° NE 21:30:52 29° ESE visible
04 Jun 4.7 23:10:57 10° NW 23:17:42 36° WSW 23:18:17 36° WSW visible
05 Jun 4.9 20:35:01 10° NNW 20:41:47 37° NE 20:47:19 16° ESE visible
05 Jun 4.2 22:25:46 10° NW 22:33:04 56° WSW 22:34:45 48° SSW visible
06 Jun 5.3 19:50:29 10° NNW 19:56:32 27° NE 20:02:51 10° E visible
06 Jun 3.9 21:40:49 10° NW 21:48:19 84° WSW 21:51:15 43° SSE visible
06 Jun 5.6 23:33:57 10° WNW 23:38:25 17° WSW 23:38:40 17° WSW visible
07 Jun 4.1 20:56:02 10° NNW 21:03:26 67° NE 21:07:48 29° SE visible
07 Jun 5.1 22:47:50 10° NW 22:54:00 28° WSW 22:55:13 26° SW visible
